,,PressureMeas_1m,,PRMeasQMR101_1,,RHStat155_1m_1,,SRMeasQMS101R_1m,,TAStat155_1m_1,,GenWind_1,,GenWind_1,
2017-08-09, 00:00:06,VALID,920.047,VALID,0.0,VALID,98.194,VALID,-0.005,VALID,19.776,VALID,23.0,VALID,0.236,
2017-08-09, 00:01:06,VALID,920.042,VALID,0.0,VALID,98.211,VALID,-0.016,VALID,19.79,VALID,13.0,VALID,0.162,
2017-08-09, 00:02:06,VALID,920.026,VALID,0.0,VALID,98.242,VALID,-0.015,VALID,19.795,VALID,13.0,VALID,0.01,
2017-08-09, 00:03:06,VALID,920.012,VALID,0.0,VALID,98.253,VALID,-0.019,VALID,19.811,VALID,356.0,VALID,0.0,
2017-08-09, 00:04:06,VALID,919.999,VALID,0.0,VALID,98.271,VALID,-0.012,VALID,19.819,VALID,350.0,VALID,0.0,
2017-08-09, 00:05:06,VALID,919.98,VALID,0.0,VALID,98.283,VALID,-0.005,VALID,19.824,VALID,5.0,VALID,0.076,
2017-08-09, 00:06:06,VALID,919.977,VALID,0.0,VALID,98.241,VALID,0.001,VALID,19.791,VALID,56.0,VALID,0.129,
2017-08-09, 00:07:06,VALID,919.963,VALID,0.0,VALID,98.19,VALID,-0.013,VALID,19.748,VALID,70.0,VALID,0.28,
2017-08-09, 00:08:06,VALID,919.959,VALID,0.0,VALID,98.179,VALID,-0.001,VALID,19.723,VALID,84.0,VALID,0.419,
2017-08-09, 00:09:06,VALID,919.965,VALID,0.0,VALID,98.185,VALID,-0.013,VALID,19.711,VALID,93.0,VALID,0.531,
2017-08-09, 00:10:06,VALID,919.975,VALID,0.0,VALID,98.194,VALID,-0.009,VALID,19.706,VALID,104.0,VALID,0.607,
2017-08-09, 00:11:06,VALID,919.979,VALID,0.0,VALID,98.225,VALID,-0.003,VALID,19.708,VALID,107.0,VALID,0.713,
2017-08-09, 00:12:06,VALID,919.981,VALID,0.0,VALID,98.264,VALID,-0.006,VALID,19.713,VALID,108.0,VALID,0.824,
2017-08-09, 00:13:06,VALID,919.987,VALID,0.0,VALID,98.281,VALID,0.003,VALID,19.715,VALID,114.0,VALID,0.909,
2017-08-09, 00:14:06,VALID,919.982,VALID,0.0,VALID,98.292,VALID,0.015,VALID,19.706,VALID,115.0,VALID,0.913,
2017-08-09, 00:15:06,VALID,919.977,VALID,0.0,VALID,98.313,VALID,0.007,VALID,19.71,VALID,108.0,VALID,0.935,
2017-08-09, 00:16:06,VALID,919.97,VALID,0.0,VALID,98.323,VALID,-0.005,VALID,19.699,VALID,100.0,VALID,0.789,
2017-08-09, 00:17:06,VALID,919.955,VALID,0.0,VALID,98.316,VALID,-0.001,VALID,19.679,VALID,98.0,VALID,0.776,
2017-08-09, 00:18:06,VALID,919.95,VALID,0.0,VALID,98.34,VALID,0.015,VALID,19.681,VALID,103.0,VALID,0.765,
2017-08-09, 00:19:06,VALID,919.922,VALID,0.0,VALID,98.355,VALID,0.004,VALID,19.682,VALID,105.0,VALID,0.729,
2017-08-09, 00:20:06,VALID,919.893,VALID,0.0,VALID,98.378,VALID,-0.001,VALID,19.695,VALID,98.0,VALID,0.666,
2017-08-09, 00:21:06,VALID,919.881,VALID,0.0,VALID,98.39,VALID,-0.005,VALID,19.682,VALID,78.0,VALID,0.562,
2017-08-09, 00:22:06,VALID,919.852,VALID,0.0,VALID,98.393,VALID,0.006,VALID,19.669,VALID,77.0,VALID,0.395,
2017-08-09, 00:23:06,VALID,919.838,VALID,0.0,VALID,98.386,VALID,0.004,VALID,19.655,VALID,82.0,VALID,0.449,
2017-08-09, 00:24:06,VALID,919.827,VALID,0.0,VALID,98.384,VALID,0.008,VALID,19.657,VALID,90.0,VALID,0.66,
2017-08-09, 00:25:06,VALID,919.8,VALID,0.0,VALID,98.408,VALID,0.008,VALID,19.661,VALID,92.0,VALID,1.066,
2017-08-09, 00:26:06,VALID,919.78,VALID,0.0,VALID,98.406,VALID,0.011,VALID,19.657,VALID,89.0,VALID,1.068,
2017-08-09, 00:27:06,VALID,919.763,VALID,0.0,VALID,98.405,VALID,0.012,VALID,19.635,VALID,87.0,VALID,1.267,
2017-08-09, 00:28:06,VALID,919.77,VALID,0.0,VALID,98.376,VALID,0.003,VALID,19.606,VALID,80.0,VALID,1.084,
2017-08-09, 00:29:06,VALID,919.76,VALID,0.0,VALID,98.407,VALID,0.013,VALID,19.605,VALID,83.0,VALID,1.186,
2017-08-09, 00:30:06,VALID,919.761,VALID,0.0,VALID,98.434,VALID,0.001,VALID,19.611,VALID,88.0,VALID,1.176,
2017-08-09, 00:31:06,VALID,919.74,VALID,0.0,VALID,98.473,VALID,0.005,VALID,19.636,VALID,94.0,VALID,1.125,
2017-08-09, 00:32:06,VALID,919.73,VALID,0.0,VALID,98.471,VALID,0.01,VALID,19.633,VALID,76.0,VALID,0.844,
2017-08-09, 00:33:06,VALID,919.72,VALID,0.0,VALID,98.494,VALID,0.013,VALID,19.63,VALID,92.0,VALID,0.672,
2017-08-09, 00:34:06,VALID,919.695,VALID,0.0,VALID,98.472,VALID,0.003,VALID,19.619,VALID,99.0,VALID,0.647,
2017-08-09, 00:35:06,VALID,919.683,VALID,0.0,VALID,98.498,VALID,0.019,VALID,19.612,VALID,100.0,VALID,0.679,
2017-08-09, 00:36:06,VALID,919.671,VALID,0.0,VALID,98.489,VALID,0.003,VALID,19.619,VALID,106.0,VALID,0.798,
2017-08-09, 00:37:06,VALID,919.652,VALID,0.0,VALID,98.509,VALID,0.005,VALID,19.64,VALID,106.0,VALID,0.993,
2017-08-09, 00:38:06,VALID,919.631,VALID,0.0,VALID,98.541,VALID,0.012,VALID,19.658,VALID,110.0,VALID,0.783,
2017-08-09, 00:39:06,VALID,919.613,VALID,0.0,VALID,98.55,VALID,0.015,VALID,19.668,VALID,124.0,VALID,0.852,
2017-08-09, 00:40:06,VALID,919.593,VALID,0.0,VALID,98.546,VALID,0.006,VALID,19.685,VALID,130.0,VALID,0.861,
2017-08-09, 00:41:06,VALID,919.595,VALID,0.0,VALID,98.571,VALID,-0.009,VALID,19.699,VALID,134.0,VALID,0.889,
2017-08-09, 00:42:06,VALID,919.592,VALID,0.0,VALID,98.562,VALID,-0.006,VALID,19.706,VALID,132.0,VALID,1.0,
2017-08-09, 00:43:06,VALID,919.604,VALID,0.0,VALID,98.565,VALID,-0.01,VALID,19.709,VALID,138.0,VALID,0.88,
2017-08-09, 00:44:06,VALID,919.593,VALID,0.0,VALID,98.557,VALID,0.004,VALID,19.704,VALID,132.0,VALID,0.807,
2017-08-09, 00:45:06,VALID,919.604,VALID,0.0,VALID,98.585,VALID,-0.004,VALID,19.707,VALID,131.0,VALID,0.515,
2017-08-09, 00:46:06,VALID,919.608,VALID,0.0,VALID,98.573,VALID,0.001,VALID,19.706,VALID,137.0,VALID,0.884,
2017-08-09, 00:47:06,VALID,919.605,VALID,0.0,VALID,98.575,VALID,-0.015,VALID,19.707,VALID,134.0,VALID,0.722,
2017-08-09, 00:48:06,VALID,919.621,VALID,0.0,VALID,98.606,VALID,-0.004,VALID,19.714,VALID,120.0,VALID,0.431,
2017-08-09, 00:49:06,VALID,919.619,VALID,0.0,VALID,98.584,VALID,-0.003,VALID,19.704,VALID,128.0,VALID,0.629,
2017-08-09, 00:50:06,VALID,919.614,VALID,0.0,VALID,98.615,VALID,0.007,VALID,19.712,VALID,119.0,VALID,0.648,
2017-08-09, 00:51:06,VALID,919.594,VALID,0.0,VALID,98.604,VALID,0.005,VALID,19.708,VALID,92.0,VALID,0.721,
2017-08-09, 00:52:06,VALID,919.58,VALID,0.0,VALID,98.572,VALID,-0.007,VALID,19.674,VALID,82.0,VALID,0.873,
2017-08-09, 00:53:06,VALID,919.557,VALID,0.0,VALID,98.572,VALID,0.001,VALID,19.655,VALID,80.0,VALID,0.671,
2017-08-09, 00:54:06,VALID,919.538,VALID,0.0,VALID,98.577,VALID,0.007,VALID,19.636,VALID,83.0,VALID,0.654,
2017-08-09, 00:55:06,VALID,919.527,VALID,0.0,VALID,98.561,VALID,-0.008,VALID,19.61,VALID,91.0,VALID,0.622,
2017-08-09, 00:56:06,VALID,919.513,VALID,0.0,VALID,98.577,VALID,-0.002,VALID,19.597,VALID,94.0,VALID,0.542,
2017-08-09, 00:57:06,VALID,919.505,VALID,0.0,VALID,98.579,VALID,-0.01,VALID,19.596,VALID,112.0,VALID,0.377,
2017-08-09, 00:58:06,VALID,919.495,VALID,0.0,VALID,98.587,VALID,-0.006,VALID,19.599,VALID,109.0,VALID,0.555,
2017-08-09, 00:59:06,VALID,919.485,VALID,0.0,VALID,98.592,VALID,-0.002,VALID,19.606,VALID,110.0,VALID,0.569,
2017-08-09, 01:00:06,VALID,919.452,VALID,0.0,VALID,98.598,VALID,0.001,VALID,19.604,VALID,101.0,VALID,0.823,
2017-08-09, 01:01:06,VALID,919.439,VALID,0.0,VALID,98.597,VALID,-0.001,VALID,19.602,VALID,97.0,VALID,0.872,
2017-08-09, 01:02:06,VALID,919.424,VALID,0.0,VALID,98.591,VALID,-0.015,VALID,19.591,VALID,93.0,VALID,0.846,
2017-08-09, 01:03:06,VALID,919.4,VALID,0.0,VALID,98.604,VALID,-0.017,VALID,19.577,VALID,97.0,VALID,0.893,
2017-08-09, 01:04:06,VALID,919.385,VALID,0.0,VALID,98.593,VALID,-0.007,VALID,19.582,VALID,106.0,VALID,0.736,
2017-08-09, 01:05:06,VALID,919.368,VALID,0.0,VALID,98.611,VALID,0.009,VALID,19.57,VALID,107.0,VALID,0.663,
2017-08-09, 01:06:06,VALID,919.369,VALID,0.0,VALID,98.612,VALID,-0.007,VALID,19.583,VALID,121.0,VALID,0.673,
2017-08-09, 01:07:06,VALID,919.351,VALID,0.0,VALID,98.646,VALID,-0.002,VALID,19.615,VALID,120.0,VALID,0.471,
2017-08-09, 01:08:06,VALID,919.361,VALID,0.0,VALID,98.632,VALID,0.008,VALID,19.629,VALID,127.0,VALID,0.389,
2017-08-09, 01:09:06,VALID,919.375,VALID,0.0,VALID,98.629,VALID,-0.004,VALID,19.628,VALID,123.0,VALID,0.64,
2017-08-09, 01:10:06,VALID,919.379,VALID,0.0,VALID,98.632,VALID,-0.005,VALID,19.632,VALID,137.0,VALID,0.732,
2017-08-09, 01:11:06,VALID,919.382,VALID,0.0,VALID,98.647,VALID,-0.004,VALID,19.655,VALID,138.0,VALID,0.633,
2017-08-09, 01:12:06,VALID,919.369,VALID,0.0,VALID,98.64,VALID,0.009,VALID,19.66,VALID,137.0,VALID,0.615,
2017-08-09, 01:13:06,VALID,919.371,VALID,0.0,VALID,98.636,VALID,0.015,VALID,19.652,VALID,140.0,VALID,0.571,
2017-08-09, 01:14:06,VALID,919.367,VALID,0.0,VALID,98.639,VALID,0.003,VALID,19.658,VALID,155.0,VALID,0.91,
2017-08-09, 01:15:06,VALID,919.36,VALID,0.0,VALID,98.636,VALID,0.01,VALID,19.659,VALID,153.0,VALID,0.884,
2017-08-09, 01:16:06,VALID,919.356,VALID,0.0,VALID,98.665,VALID,0.006,VALID,19.674,VALID,169.0,VALID,0.855,
2017-08-09, 01:17:06,VALID,919.337,VALID,0.0,VALID,98.638,VALID,0.01,VALID,19.673,VALID,153.0,VALID,0.616,
2017-08-09, 01:18:06,VALID,919.323,VALID,0.0,VALID,98.643,VALID,0.007,VALID,19.653,VALID,155.0,VALID,0.429,
2017-08-09, 01:19:06,VALID,919.311,VALID,0.0,VALID,98.634,VALID,0.009,VALID,19.664,VALID,164.0,VALID,0.757,
2017-08-09, 01:20:06,VALID,919.308,VALID,0.0,VALID,98.637,VALID,0.01,VALID,19.647,VALID,165.0,VALID,0.755,
2017-08-09, 01:21:06,VALID,919.279,VALID,0.0,VALID,98.619,VALID,0.008,VALID,19.634,VALID,146.0,VALID,0.661,
2017-08-09, 01:22:06,VALID,919.26,VALID,0.0,VALID,98.635,VALID,-0.005,VALID,19.616,VALID,162.0,VALID,0.709,
2017-08-09, 01:23:06,VALID,919.244,VALID,0.0,VALID,98.606,VALID,0.008,VALID,19.611,VALID,151.0,VALID,0.645,
2017-08-09, 01:24:06,VALID,919.226,VALID,0.0,VALID,98.653,VALID,-0.013,VALID,19.618,VALID,151.0,VALID,0.869,
2017-08-09, 01:25:06,VALID,919.219,VALID,0.0,VALID,98.655,VALID,-0.013,VALID,19.627,VALID,154.0,VALID,1.144,
2017-08-09, 01:26:06,VALID,919.192,VALID,0.0,VALID,98.625,VALID,-0.001,VALID,19.632,VALID,153.0,VALID,0.931,
2017-08-09, 01:27:06,VALID,919.184,VALID,0.0,VALID,98.645,VALID,-0.004,VALID,19.63,VALID,143.0,VALID,0.834,
2017-08-09, 01:28:06,VALID,919.167,VALID,0.0,VALID,98.644,VALID,-0.006,VALID,19.631,VALID,145.0,VALID,0.811,
2017-08-09, 01:29:06,VALID,919.159,VALID,0.0,VALID,98.627,VALID,-0.004,VALID,19.628,VALID,127.0,VALID,0.521,
2017-08-09, 01:30:06,VALID,919.168,VALID,0.0,VALID,98.644,VALID,-0.003,VALID,19.63,VALID,131.0,VALID,0.982,
2017-08-09, 01:31:06,VALID,919.153,VALID,0.0,VALID,98.652,VALID,0.001,VALID,19.635,VALID,126.0,VALID,0.777,
2017-08-09, 01:32:06,VALID,919.159,VALID,0.0,VALID,98.644,VALID,-0.004,VALID,19.625,VALID,124.0,VALID,1.241,
2017-08-09, 01:33:06,VALID,919.154,VALID,0.0,VALID,98.641,VALID,0.001,VALID,19.624,VALID,126.0,VALID,1.027,
2017-08-09, 01:34:06,VALID,919.158,VALID,0.0,VALID,98.638,VALID,-0.008,VALID,19.623,VALID,119.0,VALID,1.255,
2017-08-09, 01:35:06,VALID,919.159,VALID,0.0,VALID,98.621,VALID,0.006,VALID,19.617,VALID,130.0,VALID,0.843,
2017-08-09, 01:36:06,VALID,919.149,VALID,0.0,VALID,98.604,VALID,0.005,VALID,19.6,VALID,124.0,VALID,1.499,
2017-08-09, 01:37:06,VALID,919.153,VALID,0.0,VALID,98.606,VALID,0.011,VALID,19.576,VALID,117.0,VALID,1.461,
2017-08-09, 01:38:06,VALID,919.146,VALID,0.0,VALID,98.581,VALID,0.006,VALID,19.563,VALID,119.0,VALID,1.317,
2017-08-09, 01:39:06,VALID,919.133,VALID,0.0,VALID,98.61,VALID,0.016,VALID,19.563,VALID,125.0,VALID,1.023,
2017-08-09, 01:40:06,VALID,919.12,VALID,0.0,VALID,98.591,VALID,0.005,VALID,19.563,VALID,124.0,VALID,1.129,
2017-08-09, 01:41:06,VALID,919.109,VALID,0.0,VALID,98.597,VALID,-0.0,VALID,19.553,VALID,127.0,VALID,1.2,
2017-08-09, 01:42:06,VALID,919.098,VALID,0.0,VALID,98.594,VALID,-0.003,VALID,19.551,VALID,139.0,VALID,1.177,
2017-08-09, 01:43:06,VALID,919.082,VALID,0.0,VALID,98.595,VALID,-0.007,VALID,19.551,VALID,125.0,VALID,0.844,
2017-08-09, 01:44:06,VALID,919.067,VALID,0.0,VALID,98.595,VALID,-0.002,VALID,19.542,VALID,144.0,VALID,1.171,
2017-08-09, 01:45:06,VALID,919.049,VALID,0.0,VALID,98.596,VALID,-0.006,VALID,19.551,VALID,134.0,VALID,1.147,
2017-08-09, 01:46:06,VALID,919.041,VALID,0.0,VALID,98.597,VALID,0.002,VALID,19.554,VALID,133.0,VALID,1.023,
2017-08-09, 01:47:06,VALID,919.024,VALID,0.0,VALID,98.587,VALID,0.011,VALID,19.549,VALID,130.0,VALID,0.854,
2017-08-09, 01:48:06,VALID,919.009,VALID,0.0,VALID,98.596,VALID,-0.002,VALID,19.522,VALID,124.0,VALID,1.389,
2017-08-09, 01:49:06,VALID,919.007,VALID,0.0,VALID,98.573,VALID,-0.004,VALID,19.493,VALID,127.0,VALID,1.196,
2017-08-09, 01:50:06,VALID,918.982,VALID,0.0,VALID,98.562,VALID,-0.023,VALID,19.475,VALID,122.0,VALID,1.355,
2017-08-09, 01:51:06,VALID,918.958,VALID,0.0,VALID,98.556,VALID,0.008,VALID,19.458,VALID,130.0,VALID,1.158,
2017-08-09, 01:52:06,VALID,918.941,VALID,0.0,VALID,98.551,VALID,-0.012,VALID,19.45,VALID,130.0,VALID,1.166,
2017-08-09, 01:53:06,VALID,918.923,VALID,0.0,VALID,98.534,VALID,-0.009,VALID,19.445,VALID,129.0,VALID,1.109,
2017-08-09, 01:54:06,VALID,918.901,VALID,0.0,VALID,98.562,VALID,-0.008,VALID,19.448,VALID,133.0,VALID,1.253,
2017-08-09, 01:55:06,VALID,918.877,VALID,0.0,VALID,98.549,VALID,-0.009,VALID,19.445,VALID,135.0,VALID,1.142,
2017-08-09, 01:56:06,VALID,918.847,VALID,0.0,VALID,98.539,VALID,0.001,VALID,19.443,VALID,126.0,VALID,0.818,
2017-08-09, 01:57:06,VALID,918.835,VALID,0.0,VALID,98.501,VALID,-0.012,VALID,19.43,VALID,123.0,VALID,1.001,
2017-08-09, 01:58:06,VALID,918.809,VALID,0.0,VALID,98.512,VALID,-0.003,VALID,19.419,VALID,124.0,VALID,1.052,
2017-08-09, 01:59:06,VALID,918.802,VALID,0.0,VALID,98.514,VALID,-0.01,VALID,19.42,VALID,131.0,VALID,0.837,
2017-08-09, 02:00:06,VALID,918.795,VALID,0.0,VALID,98.497,VALID,-0.0,VALID,19.413,VALID,137.0,VALID,0.945,
2017-08-09, 02:01:06,VALID,918.786,VALID,0.0,VALID,98.498,VALID,0.007,VALID,19.4,VALID,133.0,VALID,0.879,
2017-08-09, 02:02:06,VALID,918.776,VALID,0.0,VALID,98.468,VALID,0.009,VALID,19.4,VALID,138.0,VALID,0.986,
2017-08-09, 02:03:06,VALID,918.768,VALID,0.0,VALID,98.453,VALID,0.006,VALID,19.383,VALID,145.0,VALID,1.376,
2017-08-09, 02:04:06,VALID,918.766,VALID,0.0,VALID,98.435,VALID,0.013,VALID,19.368,VALID,147.0,VALID,1.023,
2017-08-09, 02:05:06,VALID,918.765,VALID,0.0,VALID,98.432,VALID,-0.002,VALID,19.383,VALID,143.0,VALID,1.086,
2017-08-09, 02:06:06,VALID,918.763,VALID,0.0,VALID,98.389,VALID,-0.01,VALID,19.37,VALID,129.0,VALID,0.843,
2017-08-09, 02:07:06,VALID,918.748,VALID,0.0,VALID,98.376,VALID,-0.002,VALID,19.352,VALID,144.0,VALID,0.955,
2017-08-09, 02:08:06,VALID,918.723,VALID,0.0,VALID,98.323,VALID,-0.002,VALID,19.336,VALID,148.0,VALID,1.146,
2017-08-09, 02:09:06,VALID,918.701,VALID,0.0,VALID,98.272,VALID,0.008,VALID,19.346,VALID,148.0,VALID,0.937,
2017-08-09, 02:10:06,VALID,918.682,VALID,0.0,VALID,98.283,VALID,0.005,VALID,19.352,VALID,143.0,VALID,0.966,
2017-08-09, 02:11:07,VALID,918.66,VALID,0.0,VALID,98.244,VALID,0.016,VALID,19.344,VALID,147.0,VALID,1.132,
2017-08-09, 02:12:07,VALID,918.622,VALID,0.0,VALID,98.219,VALID,0.007,VALID,19.341,VALID,143.0,VALID,1.197,
2017-08-09, 02:13:07,VALID,918.592,VALID,0.0,VALID,98.195,VALID,-0.007,VALID,19.347,VALID,144.0,VALID,1.432,
2017-08-09, 02:14:07,VALID,918.577,VALID,0.0,VALID,98.22,VALID,0.008,VALID,19.36,VALID,155.0,VALID,1.564,
2017-08-09, 02:15:07,VALID,918.558,VALID,0.0,VALID,98.218,VALID,0.011,VALID,19.364,VALID,148.0,VALID,1.943,
2017-08-09, 02:16:07,VALID,918.533,VALID,0.0,VALID,98.198,VALID,0.001,VALID,19.363,VALID,150.0,VALID,1.814,
2017-08-09, 02:17:07,VALID,918.532,VALID,0.0,VALID,98.246,VALID,0.008,VALID,19.388,VALID,151.0,VALID,1.941,
2017-08-09, 02:18:07,VALID,918.511,VALID,0.0,VALID,98.268,VALID,0.025,VALID,19.396,VALID,151.0,VALID,2.158,
2017-08-09, 02:19:07,VALID,918.513,VALID,0.0,VALID,98.292,VALID,0.032,VALID,19.403,VALID,151.0,VALID,1.866,
2017-08-09, 02:20:07,VALID,918.507,VALID,0.0,VALID,98.3,VALID,0.038,VALID,19.401,VALID,149.0,VALID,1.648,
2017-08-09, 02:21:07,VALID,918.494,VALID,0.0,VALID,98.306,VALID,0.01,VALID,19.393,VALID,145.0,VALID,1.666,
2017-08-09, 02:22:07,VALID,918.497,VALID,0.0,VALID,98.33,VALID,0.013,VALID,19.383,VALID,151.0,VALID,1.731,
2017-08-09, 02:23:07,VALID,918.507,VALID,0.0,VALID,98.353,VALID,0.008,VALID,19.385,VALID,142.0,VALID,1.365,
2017-08-09, 02:24:07,VALID,918.512,VALID,0.0,VALID,98.36,VALID,0.014,VALID,19.378,VALID,139.0,VALID,1.29,
2017-08-09, 02:25:07,VALID,918.511,VALID,0.0,VALID,98.344,VALID,-0.013,VALID,19.355,VALID,127.0,VALID,1.22,
2017-08-09, 02:26:07,VALID,918.52,VALID,0.0,VALID,98.326,VALID,-0.036,VALID,19.328,VALID,131.0,VALID,1.147,
2017-08-09, 02:27:07,VALID,918.515,VALID,0.0,VALID,98.311,VALID,-0.025,VALID,19.32,VALID,124.0,VALID,0.635,
2017-08-09, 02:28:07,VALID,918.499,VALID,0.0,VALID,98.269,VALID,-0.036,VALID,19.305,VALID,130.0,VALID,0.476,
2017-08-09, 02:29:07,VALID,918.482,VALID,0.0,VALID,98.25,VALID,-0.038,VALID,19.3,VALID,122.0,VALID,0.553,
2017-08-09, 02:30:07,VALID,918.483,VALID,0.0,VALID,98.215,VALID,-0.021,VALID,19.283,VALID,133.0,VALID,0.982,
2017-08-09, 02:31:07,VALID,918.476,VALID,0.0,VALID,98.169,VALID,-0.033,VALID,19.261,VALID,126.0,VALID,1.218,
2017-08-09, 02:32:07,VALID,918.477,VALID,0.0,VALID,98.161,VALID,-0.047,VALID,19.277,VALID,143.0,VALID,0.93,
2017-08-09, 02:33:07,VALID,918.475,VALID,0.0,VALID,98.169,VALID,-0.032,VALID,19.28,VALID,136.0,VALID,0.918,
2017-08-09, 02:34:07,VALID,918.475,VALID,0.0,VALID,98.208,VALID,-0.034,VALID,19.303,VALID,146.0,VALID,1.697,
2017-08-09, 02:35:07,VALID,918.462,VALID,0.0,VALID,98.236,VALID,-0.03,VALID,19.327,VALID,155.0,VALID,1.355,
2017-08-09, 02:36:07,VALID,918.449,VALID,0.0,VALID,98.284,VALID,-0.023,VALID,19.337,VALID,149.0,VALID,2.001,
2017-08-09, 02:37:07,VALID,918.45,VALID,0.0,VALID,98.25,VALID,-0.04,VALID,19.328,VALID,162.0,VALID,1.977,
2017-08-09, 02:38:07,VALID,918.435,VALID,0.0,VALID,98.267,VALID,-0.034,VALID,19.324,VALID,153.0,VALID,1.24,
2017-08-09, 02:39:07,VALID,918.411,VALID,0.0,VALID,98.24,VALID,-0.053,VALID,19.308,VALID,149.0,VALID,1.784,
2017-08-09, 02:40:07,VALID,918.401,VALID,0.0,VALID,98.188,VALID,0.006,VALID,19.273,VALID,153.0,VALID,1.868,
2017-08-09, 02:41:07,VALID,918.39,VALID,0.0,VALID,98.162,VALID,0.027,VALID,19.252,VALID,147.0,VALID,1.18,
2017-08-09, 02:42:07,VALID,918.384,VALID,0.0,VALID,98.179,VALID,0.044,VALID,19.253,VALID,155.0,VALID,1.608,
2017-08-09, 02:43:07,VALID,918.376,VALID,0.0,VALID,98.173,VALID,0.039,VALID,19.246,VALID,159.0,VALID,1.632,
2017-08-09, 02:44:07,VALID,918.374,VALID,0.0,VALID,98.192,VALID,0.021,VALID,19.247,VALID,164.0,VALID,1.114,
2017-08-09, 02:45:07,VALID,918.39,VALID,0.0,VALID,98.231,VALID,0.019,VALID,19.256,VALID,170.0,VALID,1.173,
2017-08-09, 02:46:07,VALID,918.396,VALID,0.0,VALID,98.218,VALID,0.017,VALID,19.258,VALID,149.0,VALID,1.439,
2017-08-09, 02:47:07,VALID,918.397,VALID,0.0,VALID,98.246,VALID,0.023,VALID,19.259,VALID,161.0,VALID,1.243,
2017-08-09, 02:48:07,VALID,918.403,VALID,0.0,VALID,98.264,VALID,0.034,VALID,19.269,VALID,160.0,VALID,1.234,
2017-08-09, 02:49:07,VALID,918.387,VALID,0.0,VALID,98.266,VALID,0.047,VALID,19.259,VALID,152.0,VALID,1.753,
2017-08-09, 02:50:07,VALID,918.398,VALID,0.0,VALID,98.284,VALID,0.017,VALID,19.272,VALID,158.0,VALID,1.678,
2017-08-09, 02:51:07,VALID,918.385,VALID,0.0,VALID,98.298,VALID,0.004,VALID,19.281,VALID,161.0,VALID,1.498,
2017-08-09, 02:52:07,VALID,918.392,VALID,0.0,VALID,98.317,VALID,-0.011,VALID,19.281,VALID,161.0,VALID,1.842,
2017-08-09, 02:53:07,VALID,918.378,VALID,0.0,VALID,98.333,VALID,-0.004,VALID,19.293,VALID,160.0,VALID,1.208,
2017-08-09, 02:54:07,VALID,918.368,VALID,0.0,VALID,98.319,VALID,-0.005,VALID,19.297,VALID,165.0,VALID,0.87,
2017-08-09, 02:55:07,VALID,918.377,VALID,0.0,VALID,98.321,VALID,-0.008,VALID,19.301,VALID,191.0,VALID,0.313,
2017-08-09, 02:56:07,VALID,918.376,VALID,0.0,VALID,98.316,VALID,-0.024,VALID,19.305,VALID,180.0,VALID,0.522,
2017-08-09, 02:57:07,VALID,918.361,VALID,0.0,VALID,98.306,VALID,-0.013,VALID,19.296,VALID,142.0,VALID,0.732,
2017-08-09, 02:58:07,VALID,918.372,VALID,0.0,VALID,98.267,VALID,-0.009,VALID,19.284,VALID,166.0,VALID,0.498,
2017-08-09, 02:59:07,VALID,918.369,VALID,0.0,VALID,98.29,VALID,-0.026,VALID,19.299,VALID,191.0,VALID,0.208,
2017-08-09, 03:00:07,VALID,918.367,VALID,0.0,VALID,98.301,VALID,-0.018,VALID,19.313,VALID,178.0,VALID,0.247,
2017-08-09, 03:01:07,VALID,918.36,VALID,0.0,VALID,98.288,VALID,-0.012,VALID,19.311,VALID,169.0,VALID,0.275,
2017-08-09, 03:02:07,VALID,918.367,VALID,0.0,VALID,98.251,VALID,-0.023,VALID,19.289,VALID,152.0,VALID,0.842,
2017-08-09, 03:03:07,VALID,918.368,VALID,0.0,VALID,98.189,VALID,-0.004,VALID,19.259,VALID,131.0,VALID,0.921,
2017-08-09, 03:04:07,VALID,918.352,VALID,0.0,VALID,98.13,VALID,0.012,VALID,19.235,VALID,143.0,VALID,1.066,
2017-08-09, 03:05:07,VALID,918.351,VALID,0.0,VALID,98.085,VALID,-0.012,VALID,19.231,VALID,157.0,VALID,1.273,
2017-08-09, 03:06:07,VALID,918.345,VALID,0.0,VALID,98.037,VALID,-0.023,VALID,19.246,VALID,155.0,VALID,1.075,
2017-08-09, 03:07:07,VALID,918.344,VALID,0.0,VALID,97.971,VALID,-0.013,VALID,19.249,VALID,145.0,VALID,1.3,
2017-08-09, 03:08:07,VALID,918.342,VALID,0.0,VALID,97.923,VALID,0.016,VALID,19.259,VALID,162.0,VALID,1.047,
2017-08-09, 03:09:07,VALID,918.329,VALID,0.0,VALID,97.901,VALID,-0.006,VALID,19.271,VALID,163.0,VALID,1.303,
2017-08-09, 03:10:07,VALID,918.333,VALID,0.0,VALID,97.835,VALID,0.001,VALID,19.259,VALID,141.0,VALID,1.316,
2017-08-09, 03:11:07,VALID,918.316,VALID,0.0,VALID,97.775,VALID,-0.003,VALID,19.252,VALID,142.0,VALID,0.858,
2017-08-09, 03:12:07,VALID,918.308,VALID,0.0,VALID,97.79,VALID,-0.015,VALID,19.25,VALID,160.0,VALID,0.875,
2017-08-09, 03:13:07,VALID,918.299,VALID,0.0,VALID,97.847,VALID,0.006,VALID,19.266,VALID,158.0,VALID,1.186,
2017-08-09, 03:14:07,VALID,918.29,VALID,0.0,VALID,97.849,VALID,0.006,VALID,19.255,VALID,162.0,VALID,0.762,
2017-08-09, 03:15:07,VALID,918.282,VALID,0.0,VALID,97.913,VALID,0.008,VALID,19.271,VALID,170.0,VALID,0.414,
2017-08-09, 03:16:07,VALID,918.275,VALID,0.0,VALID,97.9,VALID,-0.0,VALID,19.259,VALID,154.0,VALID,1.552,
2017-08-09, 03:17:07,VALID,918.278,VALID,0.0,VALID,97.864,VALID,0.015,VALID,19.244,VALID,163.0,VALID,0.914,
2017-08-09, 03:18:07,VALID,918.274,VALID,0.0,VALID,97.897,VALID,0.011,VALID,19.256,VALID,158.0,VALID,1.151,
2017-08-09, 03:19:07,VALID,918.273,VALID,0.0,VALID,97.889,VALID,0.017,VALID,19.236,VALID,162.0,VALID,1.451,
2017-08-09, 03:20:07,VALID,918.277,VALID,0.0,VALID,97.87,VALID,0.006,VALID,19.226,VALID,152.0,VALID,1.272,
2017-08-09, 03:21:07,VALID,918.295,VALID,0.0,VALID,97.89,VALID,0.011,VALID,19.211,VALID,146.0,VALID,1.195,
2017-08-09, 03:22:07,VALID,918.305,VALID,0.0,VALID,97.872,VALID,0.012,VALID,19.19,VALID,145.0,VALID,1.556,
2017-08-09, 03:23:07,VALID,918.31,VALID,0.0,VALID,97.867,VALID,0.013,VALID,19.169,VALID,153.0,VALID,0.885,
2017-08-09, 03:24:07,VALID,918.305,VALID,0.0,VALID,97.906,VALID,0.018,VALID,19.174,VALID,147.0,VALID,1.246,
2017-08-09, 03:25:07,VALID,918.305,VALID,0.0,VALID,97.921,VALID,-0.003,VALID,19.155,VALID,150.0,VALID,1.617,
2017-08-09, 03:26:07,VALID,918.294,VALID,0.0,VALID,97.903,VALID,-0.043,VALID,19.126,VALID,155.0,VALID,1.89,
2017-08-09, 03:27:07,VALID,918.301,VALID,0.0,VALID,97.903,VALID,-0.031,VALID,19.122,VALID,153.0,VALID,1.533,
2017-08-09, 03:28:07,VALID,918.284,VALID,0.0,VALID,97.878,VALID,-0.02,VALID,19.112,VALID,143.0,VALID,1.553,
2017-08-09, 03:29:07,VALID,918.274,VALID,0.0,VALID,97.805,VALID,-0.04,VALID,19.089,VALID,147.0,VALID,1.567,
2017-08-09, 03:30:07,VALID,918.257,VALID,0.0,VALID,97.828,VALID,-0.034,VALID,19.094,VALID,145.0,VALID,1.108,
2017-08-09, 03:31:07,VALID,918.264,VALID,0.0,VALID,97.838,VALID,-0.036,VALID,19.085,VALID,140.0,VALID,1.125,
2017-08-09, 03:32:07,VALID,918.268,VALID,0.0,VALID,97.827,VALID,-0.042,VALID,19.077,VALID,142.0,VALID,1.203,
2017-08-09, 03:33:07,VALID,918.262,VALID,0.0,VALID,97.714,VALID,-0.047,VALID,19.036,VALID,150.0,VALID,1.862,
2017-08-09, 03:34:07,VALID,918.242,VALID,0.0,VALID,97.594,VALID,-0.017,VALID,19.036,VALID,143.0,VALID,1.203,
2017-08-09, 03:35:07,VALID,918.245,VALID,0.0,VALID,97.554,VALID,-0.029,VALID,19.04,VALID,150.0,VALID,1.046,
2017-08-09, 03:36:07,VALID,918.231,VALID,0.0,VALID,97.555,VALID,-0.031,VALID,19.042,VALID,134.0,VALID,0.867,
2017-08-09, 03:37:07,VALID,918.226,VALID,0.0,VALID,97.53,VALID,-0.038,VALID,19.03,VALID,136.0,VALID,1.234,
2017-08-09, 03:38:07,VALID,918.221,VALID,0.0,VALID,97.447,VALID,-0.046,VALID,19.019,VALID,131.0,VALID,0.921,